Douglas, WY

6:36 AM MDT on May 27, 2017 (GMT -0600)
Converse County

Weather History for KDGW - August, 2014

Change the Weather History Date:

Sunday, August 24, 2014

  Actual Average Record
Temperature  
Mean Temperature 59 °F 68 °F  
Max Temperature 76 °F 85 °F 94 °F (2012)
Min Temperature 42 °F 51 °F 40 °F (2010)
Degree Days  
Heating Degree Days 6 1  
Month to date heating degree days 9 15  
Since 1 June heating degree days 166 140  
Since 1 July heating degree days 23 30  
Cooling Degree Days 0 4  
Month to date cooling degree days 129 150  
Year to date cooling degree days 367 432  
Since 1 June cooling degree days 362 426  
Growing Degree Days 10 (Base 50)    
Moisture  
Dew Point 41 °F    
Average Humidity 55    
Maximum Humidity 83    
Minimum Humidity 27    
Precipitation  
Precipitation 0.00 in 0.03 in 0.08 in (2009)
Month to date precipitation 1.03 0.86  
Year to date precipitation 10.01 9.77  
Sea Level Pressure  
Sea Level Pressure 29.90 in    
Wind  
Wind Speed 9 mph (NW)    
Max Wind Speed 25 mph    
Max Gust Speed 34 mph    
Visibility 10 miles    
Events      
T = Trace of Precipitation, MM = Missing Value Source: NWS Daily Summary

Daily Weather History Graph

Daily Weather History Graph

Search for Another Location

Airport or City:

Trip Planner

Search our weather history database for the weather conditions in past years. The results will help you decide how hot, cold, wet, or windy it might be!

Date:

Astronomy

Aug. 24, 2014 Rise Set
Actual Time 6:17 AM MDT 7:49 PM MDT
Civil Twilight 5:47 AM MDT 8:18 PM MDT
Nautical Twilight 5:11 AM MDT 8:54 PM MDT
Astronomical Twilight 4:33 AM MDT 9:32 PM MDT
Moon 5:30 AM MDT (8/24) 7:08 PM MDT (8/24)
Length of Visible Light 14h 31m
Length of Day
13h 31m
Waning Crescent, 1% of the Moon is Illuminated
Aug 24
Waning Crescent
Aug 25
New
Sep 2
First Quarter
Sep 8
Full
Sep 15
Last Quarter

Hourly Weather History & Observations

Time (MDT) Temp. Windchill Dew Point Humidity Pressure Visibility Wind Dir Wind Speed Gust Speed Precip Events Conditions
12:53 AM 50.0 °F - 42.1 °F 74% 29.86 in 10.0 mi Calm Calm - N/A   Clear
1:53 AM 48.0 °F - 41.0 °F 77% 29.86 in 10.0 mi WNW 8.1 mph - N/A   Clear
2:53 AM 46.0 °F - 39.9 °F 79% 29.88 in 10.0 mi Calm Calm - N/A   Clear
3:53 AM 46.0 °F - 41.0 °F 83% 29.89 in 10.0 mi Calm Calm - N/A   Clear
4:53 AM 44.1 °F 42.5 °F 39.9 °F 85% 29.90 in 10.0 mi East 3.5 mph - N/A   Clear
5:53 AM 44.1 °F - 39.9 °F 85% 29.92 in 10.0 mi Calm Calm - N/A   Clear
6:53 AM 46.9 °F - 41.0 °F 80% 29.92 in 10.0 mi Calm Calm - N/A   Clear
7:53 AM 51.1 °F - 42.1 °F 71% 29.92 in 10.0 mi West 9.2 mph - N/A   Clear
8:53 AM 55.9 °F - 42.1 °F 60% 29.90 in 10.0 mi NW 11.5 mph - N/A   Clear
9:53 AM 60.1 °F - 42.1 °F 51% 29.90 in 10.0 mi WNW 15.0 mph - N/A   Clear
10:53 AM 64.9 °F - 42.1 °F 43% 29.89 in 10.0 mi WNW 15.0 mph 21.9 mph N/A   Mostly Cloudy
11:53 AM 68.0 °F - 41.0 °F 37% 29.87 in 10.0 mi WNW 17.3 mph 24.2 mph N/A   Mostly Cloudy
12:53 PM 69.1 °F - 42.1 °F 38% 29.87 in 10.0 mi West 11.5 mph - N/A   Overcast
1:53 PM 68.0 °F - 42.1 °F 39% 29.88 in 10.0 mi WNW 15.0 mph 21.9 mph N/A   Overcast
2:53 PM 73.0 °F - 41.0 °F 31% 29.86 in 10.0 mi NW 16.1 mph 26.5 mph N/A   Scattered Clouds
3:53 PM 73.0 °F - 39.9 °F 30% 29.86 in 10.0 mi NW 18.4 mph 24.2 mph N/A   Mostly Cloudy
4:53 PM 75.0 °F - 39.9 °F 28% 29.87 in 10.0 mi WNW 18.4 mph - N/A   Overcast
5:53 PM 73.0 °F - 37.9 °F 28% 29.88 in 10.0 mi WNW 9.2 mph - N/A   Mostly Cloudy
6:53 PM 69.1 °F - 37.0 °F 31% 29.91 in 10.0 mi North 12.7 mph - N/A   Partly Cloudy
9:53 PM 55.9 °F - 39.9 °F 55% 30.01 in 10.0 mi NNE 9.2 mph - N/A   Clear
11:53 PM 48.9 °F - 39.9 °F 71% 30.05 in 10.0 mi Calm Calm - N/A   Partly Cloudy